| time (UTC) | temp F | wind direction | speed MPH | gust MPH | rain 1hr in | rain 24hr in | rain mn in | humidity % | barometer mb |
| 20260504081501 | 69 | 161 | 2.0 | 5.0 | 0.00 | 0.00 | 0.00 | 46 | 1008.3 |
| 20260504044546 | 73 | 62 | 8.0 | 11.0 | 0.00 | 0.00 | 0.00 | 40 | 1009.7 |
| 20260504043039 | 75 | 96 | 8.0 | 10.0 | 0.00 | 0.00 | 0.00 | 35 | 1009.7 |
| 20260504041536 | 76 | 319 | 0.0 | 3.0 | 0.00 | 0.00 | 0.00 | 32 | 1009.7 |
| 20260504040046 | 76 | 319 | 1.0 | 4.0 | 0.00 | 0.00 | 0.00 | 31 | 1009.7 |
| 20260504034553 | 77 | 257 | 2.0 | 3.0 | 0.00 | 0.00 | 0.00 | 31 | 1009.7 |
| 20260504033044 | 77 | 246 | 0.0 | 2.0 | 0.00 | 0.00 | 0.00 | 30 | 1009.3 |
| 20260504031536 | 78 | 246 | 1.0 | 2.0 | 0.00 | 0.00 | 0.00 | 29 | 1009.3 |
| 20260504030043 | 78 | 246 | 0.0 | 3.0 | 0.00 | 0.00 | 0.00 | 28 | 1009.6 |
| 20260504024536 | 78 | 246 | 1.0 | 4.0 | 0.00 | 0.00 | 0.00 | 28 | 1009.6 |
| 20260504023038 | 79 | 246 | 1.0 | 4.0 | 0.00 | 0.00 | 0.00 | 27 | 1009.6 |
| 20260504021534 | 79 | 247 | 1.0 | 5.0 | 0.00 | 0.00 | 0.00 | 27 | 1009.2 |
| 20260504020037 | 79 | 253 | 3.0 | 5.0 | 0.00 | 0.00 | 0.00 | 26 | 1009.1 |
| 20260504014541 | 80 | 284 | 2.0 | 9.0 | 0.00 | 0.00 | 0.00 | 25 | 1009.0 |
| 20260504013033 | 80 | 240 | 5.0 | 12.0 | 0.00 | 0.00 | 0.00 | 25 | 1009.2 |
| 20260504011530 | 80 | 248 | 3.0 | 8.0 | 0.00 | 0.00 | 0.00 | 24 | 1009.1 |
| 20260504010029 | 80 | 234 | 4.0 | 8.0 | 0.00 | 0.00 | 0.00 | 24 | 1009.3 |
| 20260504004532 | 80 | 247 | 8.0 | 12.0 | 0.00 | 0.00 | 0.00 | 23 | 1009.3 |
| 20260504003031 | 81 | 235 | 4.0 | 11.0 | 0.00 | 0.00 | 0.00 | 24 | 1009.5 |
| 20260504001526 | 80 | 220 | 7.0 | 17.0 | 0.00 | 0.00 | 0.00 | 25 | 1009.6 |
| 20260504000023 | 81 | 192 | 5.0 | 8.0 | 0.00 | 0.00 | 0.00 | 29 | 1009.6 |
| 20260503234535 | 80 | 267 | 2.0 | 8.0 | 0.00 | 0.00 | 0.00 | 30 | 1009.9 |
| 20260503233018 | 80 | 203 | 6.0 | 10.0 | 0.00 | 0.00 | 0.00 | 30 | 1010.1 |
| 20260503231517 | 80 | 204 | 4.0 | 12.0 | 0.00 | 0.00 | 0.00 | 31 | 1010.3 |
| 20260503230016 | 80 | 165 | 11.0 | 16.0 | 0.00 | 0.00 | 0.00 | 31 | 1010.5 |
| 20260503224514 | 79 | 202 | 5.0 | 11.0 | 0.00 | 0.00 | 0.00 | 31 | 1010.5 |
| 20260503223013 | 80 | 202 | 3.0 | 5.0 | 0.00 | 0.00 | 0.00 | 31 | 1010.6 |
| 20260503221510 | 79 | 138 | 6.0 | 10.0 | 0.00 | 0.00 | 0.00 | 31 | 1010.8 |
| 20260503220008 | 79 | 144 | 6.0 | 10.0 | 0.00 | 0.00 | 0.00 | 31 | 1011.2 |
| 20260503214506 | 78 | 158 | 4.0 | 13.0 | 0.00 | 0.00 | 0.00 | 32 | 1011.5 |
| 20260503213003 | 80 | 144 | 5.0 | 10.0 | 0.00 | 0.00 | 0.00 | 31 | 1012.2 |
| 20260503211559 | 77 | 151 | 4.0 | 8.0 | 0.00 | 0.00 | 0.00 | 33 | 1012.7 |
| 20260503210104 | 76 | 71 | 4.0 | 9.0 | 0.00 | 0.00 | 0.00 | 34 | 1013.3 |
| 20260503204555 | 76 | 166 | 4.0 | 9.0 | 0.00 | 0.00 | 0.00 | 34 | 1013.6 |
| 20260503203051 | 76 | 130 | 7.0 | 12.0 | 0.00 | 0.00 | 0.00 | 34 | 1013.9 |
| 20260503201548 | 76 | 110 | 1.0 | 8.0 | 0.00 | 0.00 | 0.00 | 34 | 1014.1 |
| 20260503200049 | 75 | 127 | 5.0 | 9.0 | 0.00 | 0.00 | 0.00 | 34 | 1014.4 |
| 20260503194543 | 74 | 244 | 1.0 | 7.0 | 0.00 | 0.00 | 0.00 | 36 | 1014.7 |
| 20260503193047 | 73 | 39 | 3.0 | 11.0 | 0.00 | 0.00 | 0.00 | 36 | 1014.8 |
| 20260503191535 | 72 | 138 | 5.0 | 11.0 | 0.00 | 0.00 | 0.00 | 36 | 1015.2 |
| 20260503190035 | 72 | 175 | 2.0 | 9.0 | 0.00 | 0.00 | 0.00 | 38 | 1015.5 |
| 20260503184537 | 71 | 84 | 6.0 | 11.0 | 0.00 | 0.00 | 0.00 | 38 | 1015.6 |
| 20260503183025 | 70 | 69 | 8.0 | 11.0 | 0.00 | 0.00 | 0.00 | 39 | 1016.0 |
| 20260503181522 | 70 | 172 | 3.0 | 6.0 | 0.00 | 0.00 | 0.00 | 40 | 1016.5 |
| 20260503180024 | 69 | 172 | 5.0 | 10.0 | 0.00 | 0.00 | 0.00 | 41 | 1016.7 |
| 20260503174515 | 69 | 142 | 7.0 | 12.0 | 0.00 | 0.00 | 0.00 | 42 | 1017.0 |
| 20260503173014 | 68 | 134 | 6.0 | 11.0 | 0.00 | 0.00 | 0.00 | 43 | 1017.3 |
| 20260503171507 | 67 | 140 | 7.0 | 13.0 | 0.00 | 0.00 | 0.00 | 44 | 1017.4 |